^^
B2 Weather Station Historical Data
Daily Summary for December 31, 2017 Units:  English    Metric   Both
« Previous Day
Next Day »
Daily Weekly Monthly Yearly Custom
  High: Low: Average:
Temperature: 9.3 °F -3.2 °F 2.3 °F
Dew Point: 1.5 °F -9.4 °F -3.7 °F
Humidity: 82 % 70 % 76 %
Wind Speed: 13.8 mph 0.0 mph 8 mph
Wind Gust: 13.8 mph - -
Wind:- - WNW
Pressure: 30.73 in 30.51 in -
Precipitation: 0.00 in    
Historical Graphs
 
 
Tabular Data for December 31, 2017
Time Temperature Dew Point Pressure Wind Wind Speed Wind Gust Humidity Rainfall Rate (Hourly) solar Conditions
00:00 -1.2 °F -6.9 °F 30.55 in WNW 7.0 mph 7.0 mph 76 % 0.00 in 0.0 W/m2 SCT
00:05 -1.2 °F -6.9 °F 30.54 in WNW 9.2 mph 9.2 mph 76 % 0.00 in 0.0 W/m2 SCT
00:06 -1.2 °F -6.9 °F 30.54 in WNW 6.9 mph 6.9 mph 76 % 0.00 in 0.0 W/m2 SCT
00:11 -1.1 °F -6.8 °F 30.54 in WNW 5.8 mph 5.8 mph 76 % 0.00 in 0.0 W/m2 SCT
00:12 -1.1 °F -6.8 °F 30.54 in WNW 6.9 mph 6.9 mph 76 % 0.00 in 0.0 W/m2 SCT
00:14 -1.1 °F -6.8 °F 30.54 in WNW 8.1 mph 8.1 mph 76 % 0.00 in 0.0 W/m2 SCT
00:19 -1.0 °F -6.7 °F 30.54 in NW 6.0 mph 6.0 mph 76 % 0.00 in 0.0 W/m2 BKN
00:20 -1.0 °F -6.7 °F 30.54 in WNW 4.6 mph 5.1 mph 76 % 0.00 in 0.0 W/m2 BKN
00:24 -1.0 °F -6.7 °F 30.53 in WNW 4.0 mph 4.0 mph 76 % 0.00 in 0.0 W/m2 BKN
00:27 -1.0 °F -6.7 °F 30.53 in NW 5.8 mph 5.8 mph 76 % 0.00 in 0.0 W/m2 BKN
00:30 -0.9 °F -6.9 °F 30.54 in WNW 9.2 mph 9.2 mph 75 % 0.00 in 0.0 W/m2 BKN
00:31 -0.9 °F -6.9 °F 30.54 in WNW 9.2 mph 9.2 mph 75 % 0.00 in 0.0 W/m2 BKN
00:33 -0.9 °F -6.9 °F 30.53 in WNW 6.9 mph 6.9 mph 75 % 0.00 in 0.0 W/m2 BKN
00:37 -0.9 °F -6.9 °F 30.53 in WNW 8.1 mph 8.1 mph 75 % 0.00 in 0.0 W/m2 BKN
00:39 -0.9 °F -6.9 °F 30.52 in NW 5.8 mph 5.8 mph 75 % 0.00 in 0.0 W/m2 BKN
00:44 -0.9 °F -6.9 °F 30.52 in WNW 8.1 mph 8.1 mph 75 % 0.00 in 0.0 W/m2 BKN
00:46 -0.9 °F -6.9 °F 30.51 in NW 6.9 mph 6.9 mph 75 % 0.00 in 0.0 W/m2 OVC
00:49 -0.9 °F -6.9 °F 30.51 in WNW 6.9 mph 6.9 mph 75 % 0.00 in 0.0 W/m2 OVC
00:51 -0.9 °F -6.9 °F 30.51 in WNW 6.9 mph 6.9 mph 75 % 0.00 in 0.0 W/m2 OVC
00:56 -0.9 °F -6.9 °F 30.52 in NW 5.0 mph 5.0 mph 75 % 0.00 in 0.0 W/m2 OVC
01:01 -0.9 °F -6.9 °F 30.52 in NNW 5.0 mph 5.0 mph 75 % 0.00 in 0.0 W/m2 SCT
01:07 -0.9 °F -6.9 °F 30.52 in WNW 5.8 mph 5.8 mph 75 % 0.00 in 0.0 W/m2 SCT
01:12 -0.9 °F -6.9 °F 30.52 in NW 7.0 mph 7.0 mph 75 % 0.00 in 0.0 W/m2 SCT
01:17 -0.9 °F -6.9 °F 30.53 in WNW 3.5 mph 3.5 mph 75 % 0.00 in 0.0 W/m2 SCT
01:22 -1.0 °F -7.0 °F 30.54 in WNW 8.1 mph 8.1 mph 75 % 0.00 in 0.0 W/m2 SCT
01:23 -1.0 °F -7.0 °F 30.54 in WNW 10.4 mph 10.4 mph 75 % 0.00 in 0.0 W/m2 SCT
01:24 -1.0 °F -7.0 °F 30.54 in WNW 8.1 mph 8.1 mph 75 % 0.00 in 0.0 W/m2 SCT
01:29 -1.0 °F -7.0 °F 30.53 in NW 8.1 mph 8.1 mph 75 % 0.00 in 0.0 W/m2 SCT
01:30 -1.1 °F -7.1 °F 30.53 in NW 7.0 mph 7.0 mph 75 % 0.00 in 0.0 W/m2 SCT
01:35 -1.0 °F -7.0 °F 30.53 in NW 11.5 mph 11.5 mph 75 % 0.00 in 0.0 W/m2 BKN
01:37 -1.0 °F -7.0 °F 30.53 in WNW 10.4 mph 10.4 mph 75 % 0.00 in 0.0 W/m2 BKN
01:41 -1.0 °F -7.0 °F 30.54 in WNW 9.2 mph 9.2 mph 75 % 0.00 in 0.0 W/m2 BKN
01:42 -1.0 °F -7.0 °F 30.54 in WNW 9.2 mph 9.2 mph 75 % 0.00 in 0.0 W/m2 BKN
01:47 -0.9 °F -6.9 °F 30.54 in WNW 8.1 mph 8.1 mph 75 % 0.00 in 0.0 W/m2 OVC
01:48 -0.9 °F -6.6 °F 30.54 in WNW 8.1 mph 8.1 mph 76 % 0.00 in 0.0 W/m2 OVC
01:52 -0.9 °F -6.9 °F 30.54 in NW 8.1 mph 8.1 mph 75 % 0.00 in 0.0 W/m2 OVC
01:54 -0.9 °F -6.9 °F 30.54 in WNW 9.2 mph 9.2 mph 75 % 0.00 in 0.0 W/m2 OVC
01:59 -0.9 °F -6.9 °F 30.55 in NW 12.7 mph 12.7 mph 75 % 0.00 in 0.0 W/m2 OVC
02:03 -0.8 °F -6.8 °F 30.55 in WNW 9.2 mph 9.2 mph 75 % 0.00 in 0.0 W/m2 OVC
02:05 -0.8 °F -6.8 °F 30.55 in WNW 5.8 mph 5.8 mph 75 % 0.00 in 0.0 W/m2 OVC
02:08 -0.8 °F -6.8 °F 30.55 in WNW 8.1 mph 8.1 mph 75 % 0.00 in 0.0 W/m2 OVC
02:10 -0.8 °F -6.8 °F 30.55 in WNW 9.2 mph 9.2 mph 75 % 0.00 in 0.0 W/m2 OVC
02:15 -0.8 °F -6.8 °F 30.55 in NW 6.0 mph 6.0 mph 75 % 0.00 in 0.0 W/m2 OVC
02:16 -0.7 °F -6.7 °F 30.54 in NW 6.0 mph 6.0 mph 75 % 0.00 in 0.0 W/m2 OVC
02:17 -0.8 °F -6.8 °F 30.54 in NW 5.8 mph 5.8 mph 75 % 0.00 in 0.0 W/m2 OVC
02:19 -0.7 °F -6.7 °F 30.54 in WNW 8.1 mph 8.1 mph 75 % 0.00 in 0.0 W/m2 OVC
02:24 -0.7 °F -6.7 °F 30.54 in WNW 6.9 mph 6.9 mph 75 % 0.00 in 0.0 W/m2 OVC
02:29 -0.7 °F -6.7 °F 30.56 in WNW 9.2 mph 9.2 mph 75 % 0.00 in 0.0 W/m2 OVC
02:31 -0.7 °F -6.7 °F 30.56 in NW 8.1 mph 8.1 mph 75 % 0.00 in 0.0 W/m2 OVC
02:36 -0.6 °F -6.6 °F 30.56 in WNW 7.0 mph 7.0 mph 75 % 0.00 in 0.0 W/m2 OVC
02:37 -0.6 °F -6.6 °F 30.56 in WNW 6.9 mph 6.9 mph 75 % 0.00 in 0.0 W/m2 OVC
02:42 -0.5 °F -6.5 °F 30.56 in WNW 8.1 mph 8.1 mph 75 % 0.00 in 0.0 W/m2 OVC
02:43 -0.5 °F -6.5 °F 30.56 in WNW 6.9 mph 6.9 mph 75 % 0.00 in 0.0 W/m2 OVC
02:48 -0.6 °F -6.6 °F 30.56 in WNW 6.9 mph 6.9 mph 75 % 0.00 in 0.0 W/m2 OVC
02:53 -0.6 °F -6.4 °F 30.56 in West 8.0 mph 8.0 mph 76 % 0.00 in 0.0 W/m2 OVC
02:55 -0.6 °F -6.4 °F 30.56 in WNW 9.0 mph 9.0 mph 76 % 0.00 in 0.0 W/m2 OVC
02:59 -0.6 °F -6.4 °F 30.56 in WSW 11.5 mph 11.5 mph 76 % 0.00 in 0.0 W/m2 OVC
03:03 -0.6 °F -6.4 °F 30.57 in WNW 8.1 mph 8.1 mph 76 % 0.00 in 0.0 W/m2 OVC
03:08 -0.6 °F -6.4 °F 30.57 in WNW 5.8 mph 5.8 mph 76 % 0.00 in 0.0 W/m2 OVC
03:10 -0.5 °F -6.3 °F 30.57 in WNW 11.5 mph 11.5 mph 76 % 0.00 in 0.0 W/m2 OVC
03:13 -0.5 °F -6.3 °F 30.58 in WNW 10.4 mph 10.4 mph 76 % 0.00 in 0.0 W/m2 OVC
03:16 -0.4 °F -6.2 °F 30.58 in WNW 8.1 mph 8.1 mph 76 % 0.00 in 0.0 W/m2 OVC
03:19 -0.4 °F -6.2 °F 30.58 in WNW 10.4 mph 10.4 mph 76 % 0.00 in 0.0 W/m2 OVC
03:23 -0.3 °F -6.1 °F 30.57 in WNW 10.4 mph 10.4 mph 76 % 0.00 in 0.0 W/m2 OVC
03:24 -0.3 °F -6.1 °F 30.57 in WNW 5.8 mph 5.8 mph 76 % 0.00 in 0.0 W/m2 OVC
03:29 -0.3 °F -6.1 °F 30.58 in NW 9.2 mph 9.2 mph 76 % 0.00 in 0.0 W/m2 OVC
03:31 -0.3 °F -6.3 °F 30.57 in WNW 10.4 mph 10.4 mph 75 % 0.00 in 0.0 W/m2 OVC
03:35 -0.3 °F -6.1 °F 30.58 in WNW 11.5 mph 11.5 mph 76 % 0.00 in 0.0 W/m2 OVC
03:36 -0.3 °F -6.1 °F 30.58 in WNW 6.9 mph 6.9 mph 76 % 0.00 in 0.0 W/m2 OVC
03:41 -0.1 °F -5.9 °F 30.58 in WNW 6.9 mph 6.9 mph 76 % 0.00 in 0.0 W/m2 OVC
03:46 -0.1 °F -5.9 °F 30.58 in WNW 8.1 mph 8.1 mph 76 % 0.00 in 0.0 W/m2 OVC
03:47 0.0 °F -5.8 °F 30.58 in WNW 9.2 mph 9.2 mph 76 % 0.00 in 0.0 W/m2 OVC
03:48 0.0 °F -5.8 °F 30.58 in WNW 8.1 mph 8.1 mph 76 % 0.00 in 0.0 W/m2 OVC
03:53 0.0 °F -5.8 °F 30.58 in WNW 6.9 mph 6.9 mph 76 % 0.00 in 0.0 W/m2 OVC
03:58 0.1 °F -5.4 °F 30.58 in WNW 5.8 mph 5.8 mph 77 % 0.00 in 0.0 W/m2 OVC
04:01 0.1 °F -5.4 °F 30.57 in WNW 8.1 mph 8.1 mph 77 % 0.00 in 0.0 W/m2 OVC
04:02 0.2 °F -5.3 °F 30.57 in NW 8.1 mph 8.1 mph 77 % 0.00 in 0.0 W/m2 OVC
04:07 0.2 °F -5.3 °F 30.56 in NW 6.9 mph 6.9 mph 77 % 0.00 in 0.0 W/m2 OVC
04:08 0.2 °F -5.0 °F 30.56 in NW 4.6 mph 4.6 mph 78 % 0.00 in 0.0 W/m2 OVC
04:13 0.2 °F -5.0 °F 30.57 in NW 8.1 mph 8.1 mph 78 % 0.00 in 0.0 W/m2 OVC
04:14 0.2 °F -5.0 °F 30.57 in NW 8.1 mph 8.1 mph 78 % 0.00 in 0.0 W/m2 OVC
04:19 0.3 °F -4.9 °F 30.57 in WNW 5.8 mph 5.8 mph 78 % 0.00 in 0.0 W/m2 OVC
04:24 0.3 °F -4.7 °F 30.57 in WNW 9.2 mph 9.2 mph 79 % 0.00 in 0.0 W/m2 OVC
04:25 0.3 °F -4.7 °F 30.57 in WNW 6.9 mph 6.9 mph 79 % 0.00 in 0.0 W/m2 OVC
04:30 0.2 °F -4.8 °F 30.56 in NW 8.1 mph 8.1 mph 79 % 0.00 in 0.0 W/m2 OVC
04:31 0.2 °F -4.8 °F 30.56 in NW 7.0 mph 7.0 mph 79 % 0.00 in 0.0 W/m2 -SN
04:36 0.2 °F -4.5 °F 30.55 in NW 8.1 mph 8.1 mph 80 % 0.00 in 0.0 W/m2 -SN
04:37 0.2 °F -4.5 °F 30.55 in WNW 11.5 mph 11.5 mph 80 % 0.00 in 0.0 W/m2 -SN
04:42 0.3 °F -4.4 °F 30.56 in NW 11.5 mph 11.5 mph 80 % 0.00 in 0.0 W/m2 -SN
04:43 0.3 °F -4.4 °F 30.55 in NNW 11.0 mph 11.0 mph 80 % 0.00 in 0.0 W/m2 -SN
04:47 0.2 °F -4.5 °F 30.55 in WNW 9.0 mph 9.0 mph 80 % 0.00 in 0.0 W/m2 -SN
04:48 0.2 °F -4.5 °F 30.56 in NW 10.4 mph 10.4 mph 80 % 0.00 in 0.0 W/m2 -SN
04:53 0.2 °F -4.5 °F 30.56 in NW 11.5 mph 11.5 mph 80 % 0.00 in 0.0 W/m2 -SN
04:57 0.1 °F -4.6 °F 30.56 in NW 10.4 mph 10.4 mph 80 % 0.00 in 0.0 W/m2 -SN
04:58 0.1 °F -4.6 °F 30.56 in NW 10.4 mph 10.4 mph 80 % 0.00 in 0.0 W/m2 -SN
05:03 0.2 °F -4.3 °F 30.56 in NW 9.0 mph 9.0 mph 81 % 0.00 in 0.0 W/m2 -SN
05:05 0.2 °F -4.3 °F 30.56 in NW 10.0 mph 10.0 mph 81 % 0.00 in 0.0 W/m2 -SN
05:10 0.2 °F -4.3 °F 30.56 in NW 9.2 mph 9.2 mph 81 % 0.00 in 0.0 W/m2 -SN
05:14 0.2 °F -4.3 °F 30.58 in NW 12.0 mph 12.0 mph 81 % 0.00 in 0.0 W/m2 -SN
05:17 0.2 °F -4.0 °F 30.57 in NW 12.7 mph 12.7 mph 82 % 0.00 in 0.0 W/m2 -SN
05:22 0.2 °F -4.0 °F 30.57 in NW 12.7 mph 12.7 mph 82 % 0.00 in 0.0 W/m2 -SN
05:23 0.2 °F -4.0 °F 30.57 in NW 11.5 mph 11.5 mph 82 % 0.00 in 0.0 W/m2 -SN
05:28 0.2 °F -4.0 °F 30.59 in NW 11.5 mph 11.5 mph 82 % 0.00 in 0.0 W/m2 -SN
05:33 0.2 °F -4.0 °F 30.58 in NW 10.4 mph 10.4 mph 82 % 0.00 in 0.0 W/m2 -SN
05:34 0.2 °F -4.0 °F 30.58 in NW 10.4 mph 10.4 mph 82 % 0.00 in 0.0 W/m2 -SN
05:38 0.3 °F -3.9 °F 30.59 in NW 11.5 mph 11.5 mph 82 % 0.00 in 0.0 W/m2 -SN
05:40 0.2 °F -4.0 °F 30.58 in NW 11.5 mph 11.5 mph 82 % 0.00 in 0.0 W/m2 -SN
05:45 0.3 °F -3.9 °F 30.58 in NNW 12.7 mph 12.7 mph 82 % 0.00 in 0.0 W/m2 -SN
05:50 0.3 °F -3.9 °F 30.58 in WNW 10.4 mph 10.4 mph 82 % 0.00 in 0.0 W/m2 -SN
05:51 0.3 °F -3.9 °F 30.58 in WNW 12.7 mph 12.7 mph 82 % 0.00 in 0.0 W/m2 -SN
05:55 0.4 °F -3.8 °F 30.57 in NW 11.5 mph 11.5 mph 82 % 0.00 in 0.0 W/m2 -SN
06:00 0.3 °F -3.9 °F 30.54 in NW 5.8 mph 5.8 mph 82 % 0.00 in 0.0 W/m2 -SN
06:02 0.3 °F -3.9 °F 30.54 in NW 5.8 mph 5.8 mph 82 % 0.00 in 0.0 W/m2 -SN
06:04 0.3 °F -3.9 °F 30.54 in NW 4.0 mph 4.0 mph 82 % 0.00 in 0.0 W/m2 -SN
06:07 0.3 °F -3.9 °F 30.54 in NW 6.9 mph 6.9 mph 82 % 0.00 in 0.0 W/m2 -SN
06:10 0.2 °F -4.3 °F 30.55 in WNW 5.8 mph 5.8 mph 81 % 0.00 in 0.0 W/m2 -SN
06:13 0.2 °F -4.3 °F 30.54 in NW 6.9 mph 6.9 mph 81 % 0.00 in 0.0 W/m2 -SN
06:18 0.2 °F -4.3 °F 30.55 in WNW 3.0 mph 3.0 mph 81 % 0.00 in 0.0 W/m2 -SN
06:19 0.2 °F -4.3 °F 30.55 in NW 3.0 mph 3.0 mph 81 % 0.00 in 0.0 W/m2 -SN
06:24 0.2 °F -4.3 °F 30.56 in WNW 1.2 mph   81 % 0.00 in 0.0 W/m2 -SN
06:25 0.1 °F -4.3 °F 30.56 in Calm     81 % 0.00 in 0.0 W/m2 -SN
06:29 0.1 °F -4.3 °F 30.56 in NW 3.5 mph 3.5 mph 81 % 0.00 in 0.0 W/m2 -SN
06:30 0.1 °F -4.3 °F 30.57 in NW 3.5 mph 3.5 mph 81 % 0.00 in 0.0 W/m2 -SN
06:34 0.1 °F -4.3 °F 30.57 in NW 2.3 mph 2.3 mph 81 % 0.00 in 0.0 W/m2 -SN
06:36 0.0 °F -4.4 °F 30.57 in NW 3.0 mph 3.0 mph 81 % 0.00 in 0.0 W/m2 -SN
06:39 0.0 °F -4.4 °F 30.57 in WNW 3.5 mph 3.5 mph 81 % 0.00 in 0.0 W/m2 -SN
06:44 -0.1 °F -4.5 °F 30.57 in WNW 1.2 mph 1.2 mph 81 % 0.00 in 0.0 W/m2 -SN
06:46 -0.1 °F -4.5 °F 30.58 in WNW 1.2 mph 1.2 mph 81 % 0.00 in 0.0 W/m2 -SN
06:48 -0.2 °F -4.6 °F 30.58 in WNW 2.0 mph 2.0 mph 81 % 0.00 in 0.0 W/m2 -SN
06:53 -0.3 °F -4.7 °F 30.57 in WNW 1.2 mph   81 % 0.00 in 0.0 W/m2 -SN
06:56 -0.4 °F -4.8 °F 30.57 in WNW 1.2 mph   81 % 0.00 in 0.0 W/m2 -SN
07:02 -0.5 °F -4.9 °F 30.58 in WNW 2.3 mph 2.3 mph 81 % 0.00 in 0.0 W/m2 OVC
07:07 -0.7 °F -5.1 °F 30.58 in WNW 1.0 mph 1.0 mph 81 % 0.00 in 0.0 W/m2 OVC
07:08 -0.7 °F -5.1 °F 30.58 in WNW 2.3 mph 2.3 mph 81 % 0.00 in 0.0 W/m2 OVC
07:13 -0.8 °F -5.2 °F 30.58 in WNW 2.3 mph 2.3 mph 81 % 0.00 in 0.0 W/m2 OVC
07:14 -0.8 °F -5.2 °F 30.58 in WNW 1.2 mph 1.2 mph 81 % 0.00 in 0.0 W/m2 OVC
07:16 -0.8 °F -5.2 °F 30.58 in WNW 3.0 mph 3.0 mph 81 % 0.00 in 0.0 W/m2 OVC
07:20 -0.9 °F -5.3 °F 30.59 in WNW 3.5 mph 3.5 mph 81 % 0.00 in 0.0 W/m2 OVC
07:25 -0.9 °F -5.3 °F 30.59 in WNW 3.5 mph 3.5 mph 81 % 0.00 in 5.0 W/m2 OVC
07:30 -1.0 °F -5.4 °F 30.59 in WNW 2.3 mph 2.3 mph 81 % 0.00 in 7.0 W/m2 OVC
07:32 -1.0 °F -5.4 °F 30.59 in WNW 2.3 mph 2.3 mph 81 % 0.00 in 9.0 W/m2 OVC
07:36 -1.0 °F -5.4 °F 30.59 in WNW 1.2 mph 1.2 mph 81 % 0.00 in 16.0 W/m2 OVC
07:38 -1.0 °F -5.4 °F 30.59 in Calm     81 % 0.00 in 19.0 W/m2 OVC
07:43 -1.0 °F -5.4 °F 30.59 in Calm     81 % 0.00 in 25.0 W/m2 OVC
07:48 -1.0 °F -5.4 °F 30.59 in WNW 1.2 mph   81 % 0.00 in 32.0 W/m2 OVC
07:49 -1.0 °F -5.4 °F 30.59 in Calm     81 % 0.00 in 33.0 W/m2 OVC
07:54 -1.0 °F -5.4 °F 30.59 in Calm     81 % 0.00 in 42.0 W/m2 OVC
07:59 -0.9 °F -5.3 °F 30.59 in WNW 2.3 mph 2.3 mph 81 % 0.00 in 54.0 W/m2 OVC
08:01 -0.8 °F -5.2 °F 30.59 in Calm     81 % 0.00 in 60.0 W/m2 BKN
08:02 -0.8 °F -5.2 °F 30.59 in Calm     81 % 0.00 in 62.0 W/m2 BKN
08:07 -0.7 °F -5.1 °F 30.59 in Calm     81 % 0.00 in 70.0 W/m2 BKN
08:12 -0.6 °F -5.0 °F 30.60 in Calm     81 % 0.00 in 81.0 W/m2 BKN
08:14 -0.5 °F -4.9 °F 30.60 in WNW 2.3 mph 2.3 mph 81 % 0.00 in 88.0 W/m2 BKN
08:17 -0.4 °F -4.8 °F 30.60 in WNW 5.8 mph 5.8 mph 81 % 0.00 in 98.0 W/m2 BKN
08:21 -0.3 °F -4.7 °F 30.60 in WNW 3.5 mph 3.5 mph 81 % 0.00 in 107.0 W/m2 BKN
08:23 -0.3 °F -4.7 °F 30.59 in WNW 1.0 mph   81 % 0.00 in 111.0 W/m2 BKN
08:28 -0.1 °F -4.8 °F 30.60 in WNW 3.5 mph 3.5 mph 80 % 0.00 in 127.0 W/m2 BKN
08:29 -0.1 °F -4.8 °F 30.60 in Calm   0.1 mph 80 % 0.00 in 132.0 W/m2 BKN
08:34 0.0 °F -4.7 °F 30.60 in WNW 2.3 mph   80 % 0.00 in 148.0 W/m2 CLR
08:35 0.1 °F -4.6 °F 30.60 in WNW 2.3 mph   80 % 0.00 in 148.0 W/m2 CLR
08:40 0.2 °F -4.8 °F 30.60 in WNW 3.5 mph 3.5 mph 79 % 0.00 in 165.0 W/m2 CLR
08:45 0.4 °F -4.6 °F 30.60 in WNW 3.5 mph 3.5 mph 79 % 0.00 in 197.0 W/m2 CLR
08:46 0.4 °F -4.6 °F 30.60 in WNW 4.6 mph 4.6 mph 79 % 0.00 in 202.0 W/m2 CLR
08:49 0.4 °F -4.6 °F 30.60 in WNW 6.9 mph 6.9 mph 79 % 0.00 in 221.0 W/m2 CLR
08:52 0.6 °F -4.6 °F 30.60 in WNW 5.8 mph 5.8 mph 78 % 0.00 in 243.0 W/m2 CLR
08:57 0.8 °F -4.5 °F 30.60 in Calm     78 % 0.00 in 290.0 W/m2 CLR
09:02 1.0 °F -4.3 °F 30.60 in West 5.8 mph 5.8 mph 78 % 0.00 in 322.0 W/m2 CLR
09:04 1.1 °F -4.2 °F 30.60 in West 5.8 mph 5.8 mph 78 % 0.00 in 302.0 W/m2 CLR
09:08 1.4 °F -3.9 °F 30.60 in West 6.9 mph 6.9 mph 78 % 0.00 in 287.0 W/m2 CLR
09:13 1.5 °F -4.0 °F 30.61 in WNW 6.9 mph 6.9 mph 77 % 0.00 in 288.0 W/m2 CLR
09:16 1.6 °F -3.9 °F 30.61 in WNW 6.9 mph 6.9 mph 77 % 0.00 in 301.0 W/m2 CLR
09:17 1.6 °F -4.2 °F 30.61 in WNW 9.2 mph 9.2 mph 76 % 0.00 in 304.0 W/m2 CLR
09:22 1.6 °F -4.2 °F 30.61 in WNW 10.4 mph 10.4 mph 76 % 0.00 in 301.0 W/m2 CLR
09:27 1.6 °F -4.2 °F 30.61 in West 8.1 mph 8.1 mph 76 % 0.00 in 301.0 W/m2 CLR
09:29 1.6 °F -4.2 °F 30.61 in WNW 9.2 mph 9.2 mph 76 % 0.00 in 264.0 W/m2 CLR
09:32 1.7 °F -4.1 °F 30.62 in WNW 9.2 mph 9.2 mph 76 % 0.00 in 318.0 W/m2 CLR
09:35 1.7 °F -4.1 °F 30.62 in WNW 5.0 mph 5.0 mph 76 % 0.00 in 316.0 W/m2 CLR
09:40 1.8 °F -4.3 °F 30.62 in WNW 5.8 mph 5.8 mph 75 % 0.00 in 288.0 W/m2 CLR
09:42 1.8 °F -4.3 °F 30.62 in NW 8.1 mph 8.1 mph 75 % 0.00 in 257.0 W/m2 CLR
09:45 1.8 °F -4.3 °F 30.62 in WNW 9.2 mph 9.2 mph 75 % 0.00 in 237.0 W/m2 CLR
09:48 1.8 °F -4.3 °F 30.62 in WNW 10.4 mph 10.4 mph 75 % 0.00 in 223.0 W/m2 CLR
09:53 1.8 °F -4.3 °F 30.63 in WNW 4.6 mph 4.6 mph 75 % 0.00 in 179.0 W/m2 CLR
09:54 1.8 °F -4.0 °F 30.63 in WNW 5.8 mph 5.8 mph 76 % 0.00 in 183.0 W/m2 CLR
09:57 1.8 °F -4.0 °F 30.63 in WNW 8.1 mph 8.1 mph 76 % 0.00 in 185.0 W/m2 CLR
09:59 1.8 °F -4.0 °F 30.63 in WNW 7.0 mph 7.0 mph 76 % 0.00 in 211.0 W/m2 CLR
10:04 1.9 °F -3.9 °F 30.63 in WNW 10.4 mph 10.4 mph 76 % 0.00 in 204.0 W/m2 SCT
10:06 1.9 °F -3.9 °F 30.63 in West 10.4 mph 10.4 mph 76 % 0.00 in 204.0 W/m2 SCT
10:09 2.0 °F -3.8 °F 30.63 in WNW 8.1 mph 8.1 mph 76 % 0.00 in 204.0 W/m2 SCT
10:12 2.0 °F -3.8 °F 30.64 in WNW 10.4 mph 10.4 mph 76 % 0.00 in 209.0 W/m2 SCT
10:17 2.0 °F -3.8 °F 30.63 in WNW 8.1 mph 8.1 mph 76 % 0.00 in 202.0 W/m2 SCT
10:22 2.2 °F -3.6 °F 30.63 in WNW 8.1 mph 8.1 mph 76 % 0.00 in 195.0 W/m2 SCT
10:25 2.3 °F -3.5 °F 30.63 in WNW 8.1 mph 8.1 mph 76 % 0.00 in 211.0 W/m2 SCT
10:27 2.3 °F -3.5 °F 30.63 in WNW 6.9 mph 6.9 mph 76 % 0.00 in 225.0 W/m2 SCT
10:32 2.7 °F -3.1 °F 30.63 in West 4.6 mph 4.6 mph 76 % 0.00 in 251.0 W/m2 BKN
10:34 2.8 °F -3.1 °F 30.63 in WNW 6.9 mph 6.9 mph 76 % 0.00 in 234.0 W/m2 BKN
10:39 2.9 °F -3.0 °F 30.63 in WSW 5.8 mph 5.8 mph 76 % 0.00 in 248.0 W/m2 BKN
10:42 2.9 °F -3.0 °F 30.63 in West 6.9 mph 6.9 mph 76 % 0.00 in 251.0 W/m2 BKN
10:44 3.1 °F -2.8 °F 30.63 in WNW 6.9 mph 6.9 mph 76 % 0.00 in 383.0 W/m2 BKN
10:49 3.6 °F -2.3 °F 30.63 in WNW 6.0 mph 6.0 mph 76 % 0.00 in 397.0 W/m2 OVC
10:50 3.7 °F -2.2 °F 30.63 in WNW 8.1 mph 8.1 mph 76 % 0.00 in 336.0 W/m2 OVC
10:55 4.1 °F -1.8 °F 30.63 in WNW 4.6 mph 4.6 mph 76 % 0.00 in 455.0 W/m2 OVC
10:56 4.1 °F -1.8 °F 30.63 in West 4.6 mph 4.6 mph 76 % 0.00 in 455.0 W/m2 OVC
11:01 4.4 °F -1.5 °F 30.63 in West 6.9 mph 6.9 mph 76 % 0.00 in 413.0 W/m2 OVC
11:02 4.4 °F -1.5 °F 30.63 in West 4.6 mph 4.6 mph 76 % 0.00 in 413.0 W/m2 OVC
11:06 4.6 °F -1.6 °F 30.63 in WSW 8.1 mph 8.1 mph 75 % 0.00 in 343.0 W/m2 OVC
11:07 4.6 °F -1.6 °F 30.63 in WNW 3.5 mph 3.5 mph 75 % 0.00 in 343.0 W/m2 OVC
11:12 4.8 °F -1.4 °F 30.62 in West 5.8 mph 5.8 mph 75 % 0.00 in 417.0 W/m2 OVC
11:17 5.3 °F -0.6 °F 30.62 in West 6.9 mph 6.9 mph 76 % 0.00 in 411.0 W/m2 OVC
11:18 5.3 °F -0.9 °F 30.62 in West 10.4 mph 10.4 mph 75 % 0.00 in 411.0 W/m2 OVC
11:23 5.5 °F -0.7 °F 30.62 in WNW 6.0 mph 6.0 mph 75 % 0.00 in 446.0 W/m2 OVC
11:25 5.5 °F -0.7 °F 30.62 in NW 9.2 mph 9.2 mph 75 % 0.00 in 425.0 W/m2 OVC
11:29 5.3 °F -1.2 °F 30.62 in NW 9.2 mph 9.2 mph 74 % 0.00 in 473.0 W/m2 OVC
11:34 5.3 °F -0.9 °F 30.62 in WNW 10.4 mph 10.4 mph 75 % 0.00 in 346.0 W/m2 OVC
11:35 5.3 °F -0.9 °F 30.62 in WNW 9.2 mph 9.2 mph 75 % 0.00 in 346.0 W/m2 OVC
11:40 5.4 °F -0.8 °F 30.62 in WNW 9.2 mph 9.2 mph 75 % 0.00 in 475.0 W/m2 OVC
11:41 5.5 °F -0.7 °F 30.62 in NW 6.9 mph 6.9 mph 75 % 0.00 in 475.0 W/m2 OVC
11:45 5.8 °F -0.4 °F 30.61 in WNW 6.9 mph 6.9 mph 75 % 0.00 in 478.0 W/m2 OVC
11:50 6.0 °F -0.2 °F 30.61 in NW 8.1 mph 8.1 mph 75 % 0.00 in 506.0 W/m2 BKN
11:51 6.0 °F -0.2 °F 30.61 in WNW 8.1 mph 8.1 mph 75 % 0.00 in 510.0 W/m2 BKN
11:56 6.2 °F 0.0 °F 30.61 in WNW 10.4 mph 10.4 mph 75 % 0.00 in 482.0 W/m2 BKN
11:58 6.2 °F 0.0 °F 30.61 in WNW 9.2 mph 9.2 mph 75 % 0.00 in 506.0 W/m2 BKN
11:59 6.1 °F -0.4 °F 30.61 in WNW 9.2 mph 9.2 mph 74 % 0.00 in 506.0 W/m2 BKN
12:04 5.9 °F -0.6 °F 30.61 in NW 8.1 mph 8.1 mph 74 % 0.00 in 413.0 W/m2 OVC
12:05 5.9 °F -0.6 °F 30.61 in NW 4.6 mph 4.6 mph 74 % 0.00 in 413.0 W/m2 OVC
12:09 5.9 °F -0.3 °F 30.61 in WNW 4.6 mph 4.6 mph 75 % 0.00 in 417.0 W/m2 OVC
12:14 6.0 °F -0.2 °F 30.61 in Calm     75 % 0.00 in 422.0 W/m2 OVC
12:16 6.0 °F -0.2 °F 30.61 in WNW 4.6 mph 4.6 mph 75 % 0.00 in 262.0 W/m2 OVC
12:21 5.8 °F -0.7 °F 30.61 in WNW 8.1 mph 8.1 mph 74 % 0.00 in 174.0 W/m2 OVC
12:22 5.7 °F -0.8 °F 30.61 in WNW 9.2 mph 9.2 mph 74 % 0.00 in 174.0 W/m2 OVC
12:24 5.5 °F -1.0 °F 30.61 in WNW 9.2 mph 9.2 mph 74 % 0.00 in 281.0 W/m2 OVC
12:27 5.4 °F -0.8 °F 30.61 in NW 9.2 mph 9.2 mph 75 % 0.00 in 494.0 W/m2 OVC
12:29 5.6 °F -0.3 °F 30.61 in NW 9.2 mph 9.2 mph 76 % 0.00 in 490.0 W/m2 OVC
12:34 5.8 °F -0.1 °F 30.61 in NW 6.9 mph 6.9 mph 76 % 0.00 in 483.0 W/m2 OVC
12:39 6.1 °F 0.2 °F 30.60 in West 10.4 mph 10.4 mph 76 % 0.00 in 380.0 W/m2 OVC
12:40 6.1 °F 0.2 °F 30.61 in WNW 10.4 mph 10.4 mph 76 % 0.00 in 380.0 W/m2 OVC
12:45 6.0 °F 0.1 °F 30.61 in NW 8.1 mph 8.1 mph 76 % 0.00 in 381.0 W/m2 OVC
12:46 6.0 °F 0.1 °F 30.61 in WNW 6.9 mph 6.9 mph 76 % 0.00 in 376.0 W/m2 OVC
12:50 5.9 °F -0.3 °F 30.61 in WNW 9.2 mph 9.2 mph 75 % 0.00 in 338.0 W/m2 OVC
12:55 5.7 °F -0.5 °F 30.61 in NW 9.2 mph 9.2 mph 75 % 0.00 in 362.0 W/m2 OVC
12:56 5.7 °F -0.5 °F 30.61 in NW 9.2 mph 9.2 mph 75 % 0.00 in 362.0 W/m2 OVC
12:57 5.6 °F -0.6 °F 30.61 in WNW 9.2 mph 9.2 mph 75 % 0.00 in 383.0 W/m2 OVC
13:01 5.6 °F -0.6 °F 30.61 in WNW 5.8 mph 5.8 mph 75 % 0.00 in 334.0 W/m2 OVC
13:02 5.7 °F -0.5 °F 30.61 in WNW 5.8 mph 5.8 mph 75 % 0.00 in 350.0 W/m2 OVC
13:06 5.8 °F -0.4 °F 30.61 in WNW 5.8 mph 5.8 mph 75 % 0.00 in 341.0 W/m2 OVC
13:07 5.8 °F -0.4 °F 30.61 in WNW 8.1 mph 8.1 mph 75 % 0.00 in 341.0 W/m2 OVC
13:08 5.8 °F -0.4 °F 30.61 in WNW 4.6 mph 4.6 mph 75 % 0.00 in 341.0 W/m2 OVC
13:12 5.9 °F -0.3 °F 30.61 in West 9.2 mph 9.2 mph 75 % 0.00 in 383.0 W/m2 OVC
13:17 6.1 °F -0.1 °F 30.61 in WNW 6.9 mph 6.9 mph 75 % 0.00 in 403.0 W/m2 OVC
13:22 6.4 °F 0.2 °F 30.61 in NW 5.8 mph 5.8 mph 75 % 0.00 in 385.0 W/m2 OVC
13:25 6.5 °F 0.0 °F 30.61 in WNW 9.2 mph 9.2 mph 74 % 0.00 in 383.0 W/m2 OVC
13:28 6.6 °F 0.1 °F 30.61 in WNW 3.5 mph 3.5 mph 74 % 0.00 in 373.0 W/m2 OVC
13:31 6.7 °F 0.5 °F 30.60 in West 9.2 mph 9.2 mph 75 % 0.00 in 373.0 W/m2 BKN
13:36 6.9 °F 0.4 °F 30.61 in WNW 11.5 mph 11.5 mph 74 % 0.00 in 369.0 W/m2 BKN
13:37 6.9 °F 0.4 °F 30.60 in West 11.5 mph 11.5 mph 74 % 0.00 in 369.0 W/m2 BKN
13:38 6.9 °F 0.4 °F 30.60 in NW 11.5 mph 11.5 mph 74 % 0.00 in 366.0 W/m2 BKN
13:42 6.9 °F 0.4 °F 30.60 in WNW 10.4 mph 10.4 mph 74 % 0.00 in 362.0 W/m2 BKN
13:47 7.0 °F 0.5 °F 30.60 in WNW 8.1 mph 8.1 mph 74 % 0.00 in 360.0 W/m2 SCT
13:52 7.4 °F 0.8 °F 30.60 in WNW 9.2 mph 9.2 mph 74 % 0.00 in 357.0 W/m2 SCT
13:54 7.5 °F 0.7 °F 30.60 in West 10.4 mph 10.4 mph 73 % 0.00 in 353.0 W/m2 SCT
13:59 7.5 °F 0.4 °F 30.60 in WNW 8.1 mph 8.1 mph 72 % 0.00 in 339.0 W/m2 SCT
14:00 7.6 °F 0.5 °F 30.60 in NW 9.0 mph 9.0 mph 72 % 0.00 in 334.0 W/m2 SCT
14:02 7.6 °F 0.7 °F 30.60 in NW 11.5 mph 11.5 mph 73 % 0.00 in 329.0 W/m2 CLR
14:05 7.6 °F 0.5 °F 30.60 in WNW 10.4 mph 10.4 mph 72 % 0.00 in 325.0 W/m2 CLR
14:10 7.8 °F 0.6 °F 30.60 in NW 11.5 mph 11.5 mph 72 % 0.00 in 322.0 W/m2 CLR
14:11 7.8 °F 0.6 °F 30.60 in West 11.5 mph 11.5 mph 72 % 0.00 in 320.0 W/m2 CLR
14:16 8.0 °F 0.8 °F 30.61 in West 11.5 mph 11.5 mph 72 % 0.00 in 311.0 W/m2 CLR
14:21 8.2 °F 1.0 °F 30.60 in WNW 11.5 mph 11.5 mph 72 % 0.00 in 302.0 W/m2 CLR
14:26 8.3 °F 0.8 °F 30.61 in WNW 11.5 mph 11.5 mph 71 % 0.00 in 290.0 W/m2 CLR
14:28 8.4 °F 0.9 °F 30.61 in WNW 10.0 mph 10.0 mph 71 % 0.00 in 287.0 W/m2 CLR
14:34 8.6 °F 1.1 °F 30.61 in West 8.1 mph 8.1 mph 71 % 0.00 in 272.0 W/m2 CLR
14:35 8.7 °F 1.2 °F 30.61 in WNW 5.8 mph 5.8 mph 71 % 0.00 in 271.0 W/m2 CLR
14:36 8.7 °F 1.2 °F 30.61 in West 6.9 mph 6.9 mph 71 % 0.00 in 267.0 W/m2 CLR
14:41 8.9 °F 1.4 °F 30.61 in West 6.9 mph 6.9 mph 71 % 0.00 in 253.0 W/m2 CLR
14:42 8.9 °F 1.4 °F 30.61 in WNW 8.1 mph 8.1 mph 71 % 0.00 in 250.0 W/m2 CLR
14:44 8.9 °F 1.4 °F 30.61 in WNW 10.4 mph 10.4 mph 71 % 0.00 in 244.0 W/m2 CLR
14:47 8.9 °F 1.1 °F 30.61 in WNW 9.0 mph 9.0 mph 70 % 0.00 in 234.0 W/m2 CLR
14:52 9.0 °F 1.2 °F 30.61 in West 6.9 mph 6.9 mph 70 % 0.00 in 221.0 W/m2 CLR
14:53 9.0 °F 1.2 °F 30.61 in WNW 8.0 mph 8.0 mph 70 % 0.00 in 220.0 W/m2 CLR
14:58 9.1 °F 1.3 °F 30.61 in WNW 8.1 mph 8.1 mph 70 % 0.00 in 204.0 W/m2 CLR
15:03 9.2 °F 1.4 °F 30.62 in West 9.2 mph 9.2 mph 70 % 0.00 in 188.0 W/m2 CLR
15:04 9.2 °F 1.4 °F 30.61 in NW 10.4 mph 10.4 mph 70 % 0.00 in 186.0 W/m2 CLR
15:05 9.2 °F 1.4 °F 30.62 in WNW 9.2 mph 9.2 mph 70 % 0.00 in 185.0 W/m2 CLR
15:09 9.2 °F 1.4 °F 30.62 in West 9.0 mph 9.0 mph 70 % 0.00 in 172.0 W/m2 CLR
15:11 9.2 °F 1.4 °F 30.61 in West 11.5 mph 11.5 mph 70 % 0.00 in 167.0 W/m2 CLR
15:14 9.3 °F 1.5 °F 30.62 in West 11.5 mph 11.5 mph 70 % 0.00 in 158.0 W/m2 CLR
15:19 9.2 °F 1.4 °F 30.61 in WNW 8.1 mph 8.1 mph 70 % 0.00 in 146.0 W/m2 CLR
15:21 9.2 °F 1.4 °F 30.61 in WNW 11.5 mph 11.5 mph 70 % 0.00 in 142.0 W/m2 CLR
15:26 9.3 °F 1.5 °F 30.61 in West 11.5 mph 11.5 mph 70 % 0.00 in 130.0 W/m2 CLR
15:28 9.3 °F 1.5 °F 30.61 in WNW 8.1 mph 8.1 mph 70 % 0.00 in 123.0 W/m2 CLR
15:33 9.2 °F 1.4 °F 30.62 in WNW 6.0 mph 6.0 mph 70 % 0.00 in 109.0 W/m2 CLR
15:35 9.1 °F 1.3 °F 30.62 in WNW 11.5 mph 11.5 mph 70 % 0.00 in 100.0 W/m2 CLR
15:40 8.9 °F 1.1 °F 30.62 in West 11.5 mph 11.5 mph 70 % 0.00 in 39.0 W/m2 CLR
15:41 8.9 °F 1.1 °F 30.62 in WNW 10.4 mph 10.4 mph 70 % 0.00 in 30.0 W/m2 CLR
15:45 8.7 °F 1.2 °F 30.62 in West 9.2 mph 9.2 mph 71 % 0.00 in 26.0 W/m2 CLR
15:48 8.6 °F 1.1 °F 30.62 in WSW 11.5 mph 11.5 mph 71 % 0.00 in 25.0 W/m2 CLR
15:51 8.5 °F 1.0 °F 30.62 in WNW 11.5 mph 11.5 mph 71 % 0.00 in 23.0 W/m2 CLR
15:53 8.4 °F 0.9 °F 30.62 in WNW 9.2 mph 9.2 mph 71 % 0.00 in 21.0 W/m2 CLR
15:58 8.2 °F 0.7 °F 30.62 in WNW 9.2 mph 9.2 mph 71 % 0.00 in 21.0 W/m2 CLR
16:01 8.1 °F 0.6 °F 30.62 in West 11.5 mph 11.5 mph 71 % 0.00 in 19.0 W/m2 CLR
16:04 8.0 °F 0.5 °F 30.63 in NW 13.8 mph 13.8 mph 71 % 0.00 in 18.0 W/m2 CLR
16:07 8.0 °F 0.5 °F 30.63 in WNW 11.5 mph 11.5 mph 71 % 0.00 in 16.0 W/m2 CLR
16:10 7.8 °F 0.3 °F 30.63 in WNW 9.2 mph 9.2 mph 71 % 0.00 in 16.0 W/m2 CLR
16:15 7.6 °F 0.2 °F 30.63 in WNW 6.9 mph 6.9 mph 71 % 0.00 in 12.0 W/m2 CLR
16:16 7.7 °F 0.2 °F 30.63 in WNW 6.9 mph 6.9 mph 71 % 0.00 in 12.0 W/m2 CLR
16:21 7.5 °F 0.1 °F 30.63 in WNW 9.2 mph 9.2 mph 71 % 0.00 in 11.0 W/m2 CLR
16:23 7.4 °F 0.0 °F 30.63 in WNW 10.4 mph 10.4 mph 71 % 0.00 in 9.0 W/m2 CLR
16:27 7.3 °F -0.1 °F 30.63 in WNW 9.2 mph 9.2 mph 71 % 0.00 in 7.0 W/m2 CLR
16:28 7.2 °F -0.2 °F 30.63 in WNW 9.2 mph 9.2 mph 71 % 0.00 in 7.0 W/m2 CLR
16:33 7.1 °F -0.3 °F 30.63 in WNW 11.0 mph 11.0 mph 71 % 0.00 in 0.0 W/m2 CLR
16:36 7.1 °F -0.3 °F 30.64 in WNW 9.2 mph 9.2 mph 71 % 0.00 in 0.0 W/m2 CLR
16:41 6.9 °F -0.5 °F 30.64 in WNW 5.8 mph 5.8 mph 71 % 0.00 in 0.0 W/m2 CLR
16:45 6.7 °F -0.7 °F 30.64 in WNW 8.1 mph 8.1 mph 71 % 0.00 in 0.0 W/m2 CLR
16:47 6.7 °F -0.7 °F 30.64 in West 9.2 mph 9.2 mph 71 % 0.00 in 0.0 W/m2 CLR
16:52 6.6 °F -0.8 °F 30.64 in WNW 9.2 mph 9.2 mph 71 % 0.00 in 0.0 W/m2 CLR
16:53 6.5 °F -0.9 °F 30.64 in WNW 9.2 mph 9.2 mph 71 % 0.00 in 0.0 W/m2 CLR
16:58 6.4 °F -1.0 °F 30.64 in WNW 10.4 mph 10.4 mph 71 % 0.00 in 0.0 W/m2 CLR
16:59 6.4 °F -1.0 °F 30.65 in West 8.1 mph 8.1 mph 71 % 0.00 in 0.0 W/m2 CLR
17:00 6.4 °F -1.0 °F 30.64 in WNW 10.4 mph 10.4 mph 71 % 0.00 in 0.0 W/m2 CLR
17:04 6.3 °F -1.1 °F 30.65 in WNW 8.1 mph 8.1 mph 71 % 0.00 in 0.0 W/m2 BKN
17:05 6.3 °F -1.1 °F 30.65 in WNW 9.2 mph 9.2 mph 71 % 0.00 in 0.0 W/m2 BKN
17:10 6.2 °F -0.9 °F 30.64 in NW 9.2 mph 9.2 mph 72 % 0.00 in 0.0 W/m2 BKN
17:12 6.1 °F -1.0 °F 30.65 in WNW 10.4 mph 10.4 mph 72 % 0.00 in 0.0 W/m2 BKN
17:17 6.0 °F -1.1 °F 30.65 in WNW 8.0 mph 8.0 mph 72 % 0.00 in 0.0 W/m2 BKN
17:18 5.9 °F -1.2 °F 30.65 in WNW 7.0 mph 7.0 mph 72 % 0.00 in 0.0 W/m2 BKN
17:23 5.8 °F -1.3 °F 30.65 in WNW 5.0 mph 5.0 mph 72 % 0.00 in 0.0 W/m2 BKN
17:24 5.7 °F -1.4 °F 30.65 in WNW 10.4 mph 10.4 mph 72 % 0.00 in 0.0 W/m2 BKN
17:26 5.6 °F -1.5 °F 30.65 in WNW 8.1 mph 8.1 mph 72 % 0.00 in 0.0 W/m2 BKN
17:30 5.5 °F -1.6 °F 30.65 in West 11.5 mph 11.5 mph 72 % 0.00 in 0.0 W/m2 BKN
17:35 5.4 °F -1.7 °F 30.66 in WNW 8.1 mph 8.1 mph 72 % 0.00 in 0.0 W/m2 BKN
17:37 5.3 °F -1.8 °F 30.66 in WNW 5.8 mph 5.8 mph 72 % 0.00 in 0.0 W/m2 BKN
17:42 5.2 °F -1.9 °F 30.66 in WNW 10.4 mph 10.4 mph 72 % 0.00 in 0.0 W/m2 BKN
17:47 5.0 °F -2.1 °F 30.66 in WNW 8.1 mph 8.1 mph 72 % 0.00 in 0.0 W/m2 CLR
17:49 5.0 °F -1.8 °F 30.66 in WNW 9.2 mph 9.2 mph 73 % 0.00 in 0.0 W/m2 CLR
17:53 4.9 °F -1.9 °F 30.66 in WNW 11.5 mph 11.5 mph 73 % 0.00 in 0.0 W/m2 CLR
17:58 4.8 °F -2.0 °F 30.66 in WNW 10.4 mph 10.4 mph 73 % 0.00 in 0.0 W/m2 CLR
18:03 4.8 °F -2.0 °F 30.66 in WNW 8.1 mph 8.1 mph 73 % 0.00 in 0.0 W/m2 CLR
18:04 4.8 °F -2.0 °F 30.66 in NW 8.1 mph 8.1 mph 73 % 0.00 in 0.0 W/m2 CLR
18:07 4.7 °F -2.1 °F 30.66 in WNW 9.2 mph 9.2 mph 73 % 0.00 in 0.0 W/m2 CLR
18:09 4.7 °F -2.1 °F 30.66 in WNW 11.5 mph 11.5 mph 73 % 0.00 in 0.0 W/m2 CLR
18:14 4.6 °F -2.2 °F 30.66 in WNW 11.5 mph 11.5 mph 73 % 0.00 in 0.0 W/m2 CLR
18:16 4.6 °F -2.2 °F 30.66 in WNW 10.0 mph 10.0 mph 73 % 0.00 in 0.0 W/m2 CLR
18:19 4.6 °F -2.2 °F 30.67 in WNW 9.2 mph 9.2 mph 73 % 0.00 in 0.0 W/m2 CLR
18:24 4.5 °F -2.3 °F 30.67 in WNW 8.1 mph 8.1 mph 73 % 0.00 in 0.0 W/m2 CLR
18:26 4.5 °F -2.3 °F 30.67 in WNW 12.7 mph 12.7 mph 73 % 0.00 in 0.0 W/m2 CLR
18:29 4.5 °F -2.3 °F 30.67 in WNW 3.5 mph 3.5 mph 73 % 0.00 in 0.0 W/m2 CLR
18:32 4.5 °F -2.3 °F 30.66 in WNW 3.5 mph 3.5 mph 73 % 0.00 in 0.0 W/m2 CLR
18:37 4.4 °F -2.3 °F 30.67 in WNW 9.2 mph 9.2 mph 73 % 0.00 in 0.0 W/m2 CLR
18:42 4.3 °F -2.4 °F 30.67 in WNW 10.4 mph 10.4 mph 73 % 0.00 in 0.0 W/m2 CLR
18:43 4.3 °F -2.4 °F 30.67 in West 10.4 mph 10.4 mph 73 % 0.00 in 0.0 W/m2 CLR
18:46 4.2 °F -2.5 °F 30.67 in NW 8.1 mph 8.1 mph 73 % 0.00 in 0.0 W/m2 CLR
18:51 4.3 °F -2.4 °F 30.67 in NW 10.4 mph 10.4 mph 73 % 0.00 in 0.0 W/m2 CLR
18:52 4.3 °F -2.4 °F 30.67 in NW 10.4 mph 10.4 mph 73 % 0.00 in 0.0 W/m2 CLR
18:57 4.3 °F -2.4 °F 30.67 in NW 11.5 mph 11.5 mph 73 % 0.00 in 0.0 W/m2 CLR
18:58 4.3 °F -2.4 °F 30.67 in NW 11.5 mph 11.5 mph 73 % 0.00 in 0.0 W/m2 CLR
19:03 4.2 °F -2.5 °F 30.67 in WNW 8.1 mph 8.1 mph 73 % 0.00 in 0.0 W/m2 CLR
19:04 4.2 °F -2.5 °F 30.67 in WNW 10.4 mph 10.4 mph 73 % 0.00 in 0.0 W/m2 CLR
19:09 4.1 °F -2.6 °F 30.68 in WNW 10.4 mph 10.4 mph 73 % 0.00 in 0.0 W/m2 CLR
19:10 4.0 °F -2.7 °F 30.68 in WNW 7.0 mph 7.0 mph 73 % 0.00 in 0.0 W/m2 CLR
19:15 4.0 °F -2.7 °F 30.68 in WNW 10.4 mph 10.4 mph 73 % 0.00 in 0.0 W/m2 CLR
19:16 3.9 °F -2.8 °F 30.68 in WNW 11.5 mph 11.5 mph 73 % 0.00 in 0.0 W/m2 CLR
19:18 3.8 °F -2.9 °F 30.68 in WNW 8.1 mph 8.1 mph 73 % 0.00 in 0.0 W/m2 CLR
19:21 3.8 °F -2.9 °F 30.68 in WNW 11.5 mph 11.5 mph 73 % 0.00 in 0.0 W/m2 CLR
19:26 3.8 °F -2.9 °F 30.68 in NW 10.4 mph 10.4 mph 73 % 0.00 in 0.0 W/m2 CLR
19:31 3.7 °F -3.0 °F 30.68 in WNW 9.0 mph 9.0 mph 73 % 0.00 in 0.0 W/m2 CLR
19:33 3.7 °F -3.0 °F 30.68 in WNW 9.2 mph 9.2 mph 73 % 0.00 in 0.0 W/m2 CLR
19:37 3.7 °F -3.0 °F 30.68 in WNW 10.4 mph 10.4 mph 73 % 0.00 in 0.0 W/m2 CLR
19:39 3.7 °F -3.0 °F 30.68 in NW 6.9 mph 6.9 mph 73 % 0.00 in 0.0 W/m2 CLR
19:43 3.6 °F -3.4 °F 30.69 in WNW 9.2 mph 9.2 mph 72 % 0.00 in 0.0 W/m2 CLR
19:48 3.3 °F -3.7 °F 30.68 in WNW 5.0 mph 5.0 mph 72 % 0.00 in 0.0 W/m2 CLR
19:49 3.2 °F -3.8 °F 30.69 in WNW 6.9 mph 6.9 mph 72 % 0.00 in 0.0 W/m2 CLR
19:54 2.9 °F -3.8 °F 30.69 in WNW 8.1 mph 8.1 mph 73 % 0.00 in 0.0 W/m2 CLR
19:55 2.9 °F -3.8 °F 30.69 in WNW 9.2 mph 9.2 mph 73 % 0.00 in 0.0 W/m2 CLR
20:00 2.8 °F -3.9 °F 30.69 in WNW 6.0 mph 6.0 mph 73 % 0.00 in 0.0 W/m2 CLR
20:02 2.7 °F -4.0 °F 30.69 in West 7.0 mph 7.0 mph 73 % 0.00 in 0.0 W/m2 CLR
20:07 2.7 °F -3.7 °F 30.69 in WNW 11.5 mph 11.5 mph 74 % 0.00 in 0.0 W/m2 CLR
20:08 2.7 °F -3.7 °F 30.69 in WNW 11.5 mph 11.5 mph 74 % 0.00 in 0.0 W/m2 CLR
20:13 2.5 °F -3.9 °F 30.69 in West 10.4 mph 10.4 mph 74 % 0.00 in 0.0 W/m2 CLR
20:18 2.4 °F -4.0 °F 30.69 in West 11.5 mph 11.5 mph 74 % 0.00 in 0.0 W/m2 CLR
20:23 2.2 °F -4.2 °F 30.69 in WNW 11.5 mph 11.5 mph 74 % 0.00 in 0.0 W/m2 CLR
20:26 2.1 °F -4.3 °F 30.69 in West 9.2 mph 9.2 mph 74 % 0.00 in 0.0 W/m2 CLR
20:29 2.0 °F -4.4 °F 30.69 in WNW 9.2 mph 9.2 mph 74 % 0.00 in 0.0 W/m2 CLR
20:34 1.8 °F -4.3 °F 30.69 in WNW 11.5 mph 11.5 mph 75 % 0.00 in 0.0 W/m2 CLR
20:35 1.7 °F -4.7 °F 30.69 in WNW 11.5 mph 11.5 mph 74 % 0.00 in 0.0 W/m2 CLR
20:40 1.5 °F -4.6 °F 30.69 in WNW 10.4 mph 10.4 mph 75 % 0.00 in 0.0 W/m2 CLR
20:42 1.5 °F -4.6 °F 30.69 in WNW 10.0 mph 10.0 mph 75 % 0.00 in 0.0 W/m2 CLR
20:46 1.4 °F -4.7 °F 30.70 in NW 11.5 mph 11.5 mph 75 % 0.00 in 0.0 W/m2 CLR
20:51 1.3 °F -4.8 °F 30.69 in WNW 10.4 mph 10.4 mph 75 % 0.00 in 0.0 W/m2 CLR
20:52 1.2 °F -4.9 °F 30.70 in WNW 8.1 mph 8.1 mph 75 % 0.00 in 0.0 W/m2 CLR
20:54 1.2 °F -4.9 °F 30.70 in West 12.7 mph 12.7 mph 75 % 0.00 in 0.0 W/m2 CLR
20:57 1.1 °F -5.0 °F 30.70 in WNW 11.5 mph 11.5 mph 75 % 0.00 in 0.0 W/m2 CLR
21:01 1.1 °F -5.0 °F 30.70 in NW 11.5 mph 11.5 mph 75 % 0.00 in 0.0 W/m2 CLR
21:02 1.1 °F -5.0 °F 30.70 in WNW 11.5 mph 11.5 mph 75 % 0.00 in 0.0 W/m2 CLR
21:07 1.0 °F -5.1 °F 30.70 in WNW 10.4 mph 10.4 mph 75 % 0.00 in 0.0 W/m2 CLR
21:10 0.9 °F -4.9 °F 30.70 in WNW 12.7 mph 12.7 mph 76 % 0.00 in 0.0 W/m2 CLR
21:13 0.8 °F -5.0 °F 30.70 in WNW 11.5 mph 11.5 mph 76 % 0.00 in 0.0 W/m2 CLR
21:17 0.6 °F -5.2 °F 30.70 in West 8.1 mph 8.1 mph 76 % 0.00 in 0.0 W/m2 CLR
21:22 0.4 °F -5.1 °F 30.70 in WNW 8.1 mph 8.1 mph 77 % 0.00 in 0.0 W/m2 CLR
21:25 0.2 °F -5.3 °F 30.70 in WNW 8.1 mph 8.1 mph 77 % 0.00 in 0.0 W/m2 CLR
21:28 0.0 °F -5.5 °F 30.70 in West 7.0 mph 8.0 mph 77 % 0.00 in 0.0 W/m2 CLR
21:31 -0.1 °F -5.6 °F 30.70 in WNW 11.5 mph 11.5 mph 77 % 0.00 in 0.0 W/m2 CLR
21:34 -0.2 °F -5.7 °F 30.71 in NW 7.0 mph 7.0 mph 77 % 0.00 in 0.0 W/m2 CLR
21:39 -0.4 °F -5.9 °F 30.71 in WNW 7.0 mph 7.0 mph 77 % 0.00 in 0.0 W/m2 CLR
21:43 -0.6 °F -6.1 °F 30.71 in WNW 10.4 mph 10.4 mph 77 % 0.00 in 0.0 W/m2 CLR
21:45 -0.6 °F -6.1 °F 30.71 in West 9.2 mph 9.2 mph 77 % 0.00 in 0.0 W/m2 CLR
21:50 -0.8 °F -6.3 °F 30.71 in WNW 9.2 mph 9.2 mph 77 % 0.00 in 0.0 W/m2 CLR
21:55 -1.0 °F -6.7 °F 30.71 in WNW 12.7 mph 12.7 mph 76 % 0.00 in 0.0 W/m2 CLR
21:56 -1.0 °F -6.7 °F 30.71 in WNW 11.5 mph 11.5 mph 76 % 0.00 in 0.0 W/m2 CLR
22:01 -1.0 °F -6.7 °F 30.71 in NW 10.4 mph 10.4 mph 76 % 0.00 in 0.0 W/m2 CLR
22:06 -1.1 °F -6.8 °F 30.71 in WNW 11.5 mph 11.5 mph 76 % 0.00 in 0.0 W/m2 CLR
22:07 -1.1 °F -6.8 °F 30.71 in West 11.5 mph 11.5 mph 76 % 0.00 in 0.0 W/m2 CLR
22:12 -1.2 °F -6.9 °F 30.72 in NNW 9.2 mph 9.2 mph 76 % 0.00 in 0.0 W/m2 CLR
22:13 -1.2 °F -6.9 °F 30.72 in West 10.0 mph 10.0 mph 76 % 0.00 in 0.0 W/m2 CLR
22:18 -1.3 °F -7.3 °F 30.72 in West 11.5 mph 11.5 mph 75 % 0.00 in 0.0 W/m2 CLR
22:19 -1.4 °F -7.4 °F 30.71 in WNW 11.5 mph 11.5 mph 75 % 0.00 in 0.0 W/m2 CLR
22:24 -1.5 °F -7.5 °F 30.72 in WNW 9.0 mph 9.0 mph 75 % 0.00 in 0.0 W/m2 CLR
22:29 -1.6 °F -7.6 °F 30.72 in WNW 9.2 mph 9.2 mph 75 % 0.00 in 0.0 W/m2 CLR
22:34 -1.7 °F -7.7 °F 30.72 in WNW 11.5 mph 11.5 mph 75 % 0.00 in 0.0 W/m2 CLR
22:35 -1.7 °F -7.7 °F 30.72 in WNW 11.5 mph 11.5 mph 75 % 0.00 in 0.0 W/m2 CLR
22:38 -1.8 °F -7.8 °F 30.72 in West 11.5 mph 11.5 mph 75 % 0.00 in 0.0 W/m2 CLR
22:40 -1.8 °F -7.8 °F 30.72 in WNW 9.0 mph 9.0 mph 75 % 0.00 in 0.0 W/m2 CLR
22:43 -1.9 °F -7.9 °F 30.73 in West 8.1 mph 8.1 mph 75 % 0.00 in 0.0 W/m2 CLR
22:46 -1.8 °F -8.1 °F 30.73 in West 10.4 mph 10.4 mph 74 % 0.00 in 0.0 W/m2 CLR
22:51 -1.8 °F -8.1 °F 30.72 in West 9.2 mph 9.2 mph 74 % 0.00 in 0.0 W/m2 CLR
22:52 -1.8 °F -8.1 °F 30.73 in WNW 8.1 mph 8.1 mph 74 % 0.00 in 0.0 W/m2 CLR
22:57 -1.8 °F -7.8 °F 30.73 in WNW 8.1 mph 8.1 mph 75 % 0.00 in 0.0 W/m2 CLR
22:58 -1.8 °F -7.8 °F 30.73 in WNW 9.2 mph 9.2 mph 75 % 0.00 in 0.0 W/m2 CLR
23:03 -1.9 °F -7.9 °F 30.73 in WNW 11.5 mph 11.5 mph 75 % 0.00 in 0.0 W/m2 CLR
23:06 -2.0 °F -8.0 °F 30.73 in WNW 9.2 mph 9.2 mph 75 % 0.00 in 0.0 W/m2 CLR
23:07 -2.0 °F -8.0 °F 30.73 in WNW 9.2 mph 9.2 mph 75 % 0.00 in 0.0 W/m2 CLR
23:11 -2.2 °F -8.2 °F 30.73 in WNW 7.0 mph 7.0 mph 75 % 0.00 in 0.0 W/m2 CLR
23:14 -2.2 °F -7.9 °F 30.73 in WNW 9.2 mph 9.2 mph 76 % 0.00 in 0.0 W/m2 CLR
23:16 -2.2 °F -7.9 °F 30.73 in WNW 9.2 mph 9.2 mph 76 % 0.00 in 0.0 W/m2 CLR
23:20 -2.3 °F -8.0 °F 30.73 in West 10.4 mph 10.4 mph 76 % 0.00 in 0.0 W/m2 CLR
23:23 -2.3 °F -8.0 °F 30.73 in WNW 11.5 mph 11.5 mph 76 % 0.00 in 0.0 W/m2 CLR
23:25 -2.3 °F -8.0 °F 30.73 in WNW 11.5 mph 11.5 mph 76 % 0.00 in 0.0 W/m2 CLR
23:30 -2.4 °F -8.4 °F 30.73 in West 10.4 mph 10.4 mph 75 % 0.00 in 0.0 W/m2 CLR
23:32 -2.5 °F -8.5 °F 30.73 in West 8.0 mph 8.0 mph 75 % 0.00 in 0.0 W/m2 CLR
23:37 -2.6 °F -8.6 °F 30.73 in WNW 11.5 mph 11.5 mph 75 % 0.00 in 0.0 W/m2 CLR
23:38 -2.6 °F -8.6 °F 30.73 in WNW 10.4 mph 10.4 mph 75 % 0.00 in 0.0 W/m2 CLR
23:43 -2.7 °F -8.7 °F 30.73 in WNW 10.4 mph 10.4 mph 75 % 0.00 in 0.0 W/m2 CLR
23:44 -2.7 °F -8.7 °F 30.73 in WNW 10.4 mph 10.4 mph 75 % 0.00 in 0.0 W/m2 CLR
23:49 -2.9 °F -8.9 °F 30.73 in WNW 11.5 mph 11.5 mph 75 % 0.00 in 0.0 W/m2 CLR
23:50 -3.0 °F -9.0 °F 30.73 in WNW 6.9 mph 6.9 mph 75 % 0.00 in 0.0 W/m2 CLR
23:55 -3.1 °F -9.1 °F 30.73 in WNW 10.4 mph 10.4 mph 75 % 0.00 in 0.0 W/m2 CLR
23:57 -3.2 °F -9.4 °F 30.73 in WNW 8.1 mph 8.1 mph 74 % 0.00 in 0.0 W/m2 CLR
Bourbonnais, Illinois, USA
Compliments of Weather Underground - 4.5 mb